User: anonymous   Login
Location: Hradec Kralove
(50.2170°N, 15.8330°E)
Time: 00:04:05
(UTC+01:00)
Language:

Tiangong - Orbit

View from above orbital plane
View from above orbital plane
View from above satellite
View from above satellite

Ground track
Ground track

The orbit data is extracted from the following two-line orbital elements,

1 48274U 21035A   23031.81614659  .00012999  00000-0  15423-3 0  9993
2 48274  41.4747 267.3556 0002227  99.8605   4.5799 15.60976308100503
Epoch (UTC): 31 January 2023 19:35:15
Eccentricity: 0.0002227
inclination: 41.4747°
perigee height: 383 km
apogee height: 386 km
right ascension of ascending node: 267.3556°
argument of perigee: 99.8605°
revolutions per day: 15.60976308
mean anomaly at epoch: 4.5799°
orbit number at epoch: 10050

The dashed part of the orbit path shows where the satellite is in the earth's shadow,  

DLR